[[{"header":{"parameterUnit":"m.s-1","parameterCategory":1,"la1":30.2991,"la2":30.254,"lo1":-89.0895,"lo2":-89.0444,"dy":0.0017,"dx":0.0017,"nx":28,"ny":28,"refTime":"2023-10-20T09:00:00:Z","depth":0,"parameterNumber":2,"parameterNumberName":"U-component_of_WINDS"},"data":[0,0,0,0,0,0,0,0,0,0,0,0,0,0,0,0,0,0,0,0,0,0,0,0,0,0,0,0,0,0,0,0,0,0,0,0,0,0,0,0,0,0,0,0,0,0,0,0,0,0,0,0,0,0,0,0,0,0,4.2485,4.2486,0,4.2576,4.2577,4.2578,4.2571,4.257,4.2569,4.2567,4.2663,4.2667,4.267,0,0,0,0,0,0,0,0,0,0,0,0,0,4.2308,4.2312,4.2485,4.2486,4.2487,4.2576,4.2577,4.2578,4.2572,4.257,4.2568,4.2567,4.2662,4.2666,4.2671,0,0,0,0,0,0,0,0,0,0,0,0,0,4.2391,4.2313,4.2485,4.2494,4.2496,4.2576,4.2577,4.2579,4.2572,4.257,4.2568,4.2566,4.266,4.2666,4.2671,4.2748,0,0,4.2689,4.2691,0,0,0,0,0,0,0,0,4.2386,4.2397,4.2492,4.2494,4.2496,4.256,4.255,4.2635,4.2573,4.2543,4.2567,4.2565,4.2631,4.2639,4.266,4.2752,4.2756,4.2689,4.2693,4.2695,4.2697,0,0,0,0,0,0,0,4.238,4.2393,4.2521,4.2493,4.2496,4.2495,4.2505,4.2566,4.2597,4.2546,4.2545,4.2556,4.2631,4.2655,4.2662,4.2758,4.2689,4.2694,4.2698,4.27,4.2921,4.2923,0,0,0,0,0,0,4.2372,4.2389,4.2518,4.2524,4.2435,4.25,4.2511,4.2542,4.2597,4.2603,4.2558,4.2556,4.2646,4.2656,4.2666,4.2761,4.2695,4.2701,4.2704,4.2918,4.2921,4.2924,0,0,0,0,0,0,4.2368,4.2384,4.2514,4.2456,4.2473,4.2505,4.254,4.2545,4.2568,4.2606,4.2612,4.2576,4.2645,4.2658,4.2728,4.2765,4.2703,4.2708,4.2915,4.2919,4.2923,4.2952,0,0,0,0,0,0,4.2363,4.2382,4.2411,4.2457,4.2476,4.2574,4.2542,4.2548,4.2578,4.2576,4.2624,4.263,4.2644,4.272,4.2734,4.2771,4.2713,4.2912,4.2917,4.2921,4.2948,4.2956,4.2963,0,0,0,0,0,4.2357,4.2415,4.2412,4.2428,4.2512,4.2576,4.2587,4.2601,4.258,4.261,4.2635,4.2629,4.2758,4.2727,4.2743,4.2783,4.291,4.2916,4.2921,4.2944,4.2954,4.2963,0,0,0,0,0,0,4.2372,4.2421,4.2419,4.2493,4.253,4.2575,4.2612,4.2611,4.2655,4.2652,4.2668,4.2679,4.275,4.2773,4.2738,4.2861,4.2832,4.284,4.2844,4.2854,4.2861,4.2855,4.2718,0,0,0,0,0,4.2384,4.2431,4.2472,4.2533,4.2552,4.2579,4.2608,4.2616,4.2655,4.2671,4.2701,4.2741,4.2791,4.2823,4.2871,4.2951,4.2963,4.2986,4.2994,4.3,4.3008,4.3055,4.3067,4.2942,4.2942,4.2942,0,0,4.2409,4.2442,4.2471,4.2537,4.2567,4.2618,4.2593,4.2646,4.2684,4.268,4.2749,4.2772,4.2817,4.2894,4.2929,4.2915,4.3045,4.3007,4.3011,4.3016,4.3062,4.3074,4.3084,4.2945,4.2945,4.2944,0,0,4.2481,4.251,4.2566,4.2597,4.2643,4.2661,4.2674,4.2719,4.2735,4.2804,4.2803,4.2849,4.2933,4.2967,4.2995,4.3083,4.308,4.3098,4.3138,4.3184,4.3194,4.3203,4.3237,4.3248,4.3105,4.3105,4.3105,0,4.2507,4.2582,4.2595,4.265,4.268,4.2679,4.2737,4.2766,4.2826,4.2848,4.2831,4.294,4.297,4.3055,4.3077,4.3099,4.3117,4.3093,4.3191,4.32,4.3209,4.3241,4.3254,4.3107,4.3107,4.3107,4.3107,0,4.2613,4.2665,4.2705,4.2763,4.2798,4.2854,4.2877,4.2911,4.2916,4.2936,4.3009,4.3045,4.3102,4.3122,4.3127,4.321,4.32,4.3187,4.3158,4.3223,4.3254,4.3266,4.311,4.311,4.3109,4.3108,0,0,4.2696,4.2762,4.2777,4.2805,4.2856,4.2897,4.2955,4.301,4.304,4.3081,4.3132,4.3204,4.3194,4.3226,4.3235,4.3275,4.3346,4.3257,4.3259,4.3275,4.3442,4.3453,4.3467,4.3343,4.3346,4.3348,4.3439,0,4.2776,4.2876,4.2891,4.2981,4.3031,4.3031,4.3081,4.3119,4.314,4.3187,4.321,4.3262,4.3242,4.3262,4.3302,4.3328,4.338,4.3322,4.3392,4.3395,4.3383,4.3483,4.3494,4.3578,4.3451,4.3453,4.3454,0,4.2881,4.2927,4.3021,4.3069,4.3091,4.3135,4.3189,4.3232,4.3276,4.3289,4.3326,4.3331,4.3393,4.336,4.3446,4.3407,4.3437,4.3454,4.3458,4.3467,4.343,4.3496,4.3605,4.3619,4.3473,4.3472,4.347,0,4.2937,4.3021,4.3089,4.3113,4.3169,4.3201,4.3226,4.3268,4.3301,4.3348,4.3371,4.3424,4.3454,4.3496,4.3516,4.349,4.3602,4.357,4.3617,4.3616,4.3641,4.364,4.3759,4.3657,4.3657,4.3657,4.3656,0,4.3025,4.3083,4.3115,4.3157,4.3224,4.3241,4.3307,4.3331,4.3369,4.3418,4.342,4.3466,4.3489,4.3539,4.3555,4.3626,4.3639,4.3652,4.3656,4.3653,4.3652,4.3674,4.367,4.366,4.3659,4.3659,4.3658,0,4.3098,4.3121,4.3196,4.3244,4.3258,4.3305,4.3346,4.3389,4.3409,4.3471,4.3486,4.352,4.3579,4.3603,4.3675,4.3686,4.3768,4.3767,4.3753,4.3755,4.3801,4.3797,4.394,4.3961,4.3843,4.3844,4.3845,0,4.3154,4.3199,4.3252,4.3285,4.3311,4.3363,4.3397,4.3416,4.3452,4.3507,4.3544,4.3602,4.3651,4.3745,4.3777,4.3833,4.3834,4.388,4.3842,4.3839,4.3838,4.3836,4.3842,4.3888,4.3889,4.389,4.3891,0,4.3251,4.3261,4.331,4.3364,4.3405,4.3448,4.349,4.3517,4.3543,4.3583,4.3644,4.3681,4.3756,4.3815,4.3873,4.3901,4.3901,4.3902,4.3916,4.3915,4.3906,4.3914,4.3775,4.3899,4.3898,4.3898,4.3897,4.3897,4.3319,4.336,4.3405,4.346,4.3494,4.3534,4.3577,4.3604,4.3654,4.3716,4.3724,4.379,4.3836,4.3914,4.3944,4.3997,4.3985,4.4005,4.401,4.4015,4.402,4.3896,4.4007,4.4007,4.4007,4.4006,4.4006,0,4.3419,4.3448,4.3498,4.3558,4.3602,4.3598,4.3645,4.3683,4.374,4.3782,4.383,4.3901,4.3959,4.3996,4.4055,4.4091,4.4093,4.4106,4.4104,4.4111,4.4025,4.4008,4.4103,4.4103,4.4103,4.4103,4.4103,4.4103,4.3476,4.3547,4.3562,4.3651,4.368,4.3744,4.3772,4.381,4.3844,4.3923,4.3971,4.3994,4.4035,4.4098,4.4152,4.4162,4.4184,4.4199,4.4208,4.4127,4.4117,4.4107,4.4092,4.4203,4.4203,4.429,4.4291,4.4291]},{"header":{"parameterUnit":"m.s-1","parameterCategory":1,"la1":30.2991,"la2":30.254,"lo1":-89.0895,"lo2":-89.0444,"dy":0.0017,"dx":0.0017,"nx":28,"ny":28,"refTime":"2023-10-20T09:00:00:Z","depth":0,"parameterNumber":3,"parameterNumberName":"V-component_of_WINDS"},"data":[0,0,0,0,0,0,0,0,0,0,0,0,0,0,0,0,0,0,0,0,0,0,0,0,0,0,0,0,0,0,0,0,0,0,0,0,0,0,0,0,0,0,0,0,0,0,0,0,0,0,0,0,0,0,0,0,0,0,0.8835,0.8835,0,0.8828,0.8828,0.8828,0.8815,0.8814,0.8814,0.8814,0.8807,0.8807,0.8807,0,0,0,0,0,0,0,0,0,0,0,0,0,0.8834,0.8834,0.8835,0.8835,0.8834,0.8828,0.8828,0.8828,0.8815,0.8814,0.8814,0.8814,0.8807,0.8807,0.8807,0,0,0,0,0,0,0,0,0,0,0,0,0,0.8832,0.8834,0.8835,0.8827,0.8826,0.8828,0.8828,0.8828,0.8815,0.8814,0.8814,0.8814,0.8807,0.8807,0.8807,0.8815,0,0,0.8807,0.8807,0,0,0,0,0,0,0,0,0.8832,0.8832,0.8828,0.8828,0.8827,0.8822,0.8825,0.8824,0.8815,0.8819,0.8814,0.8813,0.8812,0.8812,0.8811,0.8815,0.8815,0.8807,0.8807,0.8807,0.8807,0,0,0,0,0,0,0,0.8832,0.8832,0.8832,0.8828,0.8827,0.8824,0.8823,0.8825,0.8818,0.8819,0.8818,0.8817,0.8812,0.8811,0.8811,0.8815,0.8807,0.8807,0.8807,0.8807,0.8824,0.8824,0,0,0,0,0,0,0.8834,0.8832,0.8832,0.8832,0.8828,0.8824,0.8823,0.8824,0.8818,0.8817,0.8818,0.8817,0.8811,0.8811,0.8811,0.882,0.8807,0.8807,0.8807,0.8824,0.8824,0.8824,0,0,0,0,0,0,0.8834,0.8834,0.8832,0.8832,0.8831,0.8824,0.8825,0.8824,0.8824,0.8817,0.8815,0.8819,0.8811,0.8811,0.8814,0.8819,0.8807,0.8807,0.8823,0.8824,0.8824,0.8838,0,0,0,0,0,0,0.8834,0.8834,0.8837,0.8832,0.8831,0.8836,0.8826,0.8824,0.8824,0.8823,0.8818,0.8816,0.8811,0.8814,0.8814,0.8819,0.8807,0.8823,0.8823,0.8824,0.8837,0.8839,0.8841,0,0,0,0,0,0.8834,0.8842,0.8838,0.8838,0.8836,0.8837,0.8836,0.883,0.8824,0.8827,0.8823,0.8816,0.8819,0.8815,0.8815,0.882,0.8822,0.8823,0.8824,0.8836,0.8839,0.8841,0,0,0,0,0,0,0.8848,0.8841,0.8836,0.8843,0.884,0.8834,0.8838,0.8833,0.8832,0.8831,0.8822,0.8821,0.8826,0.8823,0.8819,0.8827,0.8819,0.882,0.8829,0.8831,0.8833,0.8833,0.8808,0,0,0,0,0,0.8851,0.8853,0.8847,0.8853,0.8852,0.8845,0.8846,0.8841,0.8838,0.8837,0.8833,0.883,0.883,0.883,0.883,0.8837,0.8835,0.884,0.8842,0.8843,0.8844,0.8846,0.8848,0.8827,0.8827,0.8827,0,0,0.8859,0.8856,0.8857,0.8856,0.8853,0.8855,0.8845,0.8847,0.8848,0.8837,0.884,0.8837,0.8833,0.8838,0.884,0.8836,0.885,0.8844,0.8846,0.8846,0.8848,0.885,0.8851,0.8828,0.8828,0.8828,0,0,0.8874,0.8872,0.8877,0.8874,0.8871,0.8866,0.8867,0.8862,0.886,0.8863,0.8854,0.8855,0.8856,0.8853,0.8852,0.8865,0.8859,0.8865,0.8875,0.8877,0.8879,0.888,0.8884,0.8886,0.8866,0.8866,0.8866,0,0.8884,0.8887,0.888,0.8882,0.8881,0.8872,0.8876,0.8874,0.8871,0.887,0.8866,0.8865,0.8862,0.8866,0.8869,0.8869,0.8869,0.8866,0.8879,0.888,0.8882,0.8885,0.8887,0.8867,0.8867,0.8867,0.8867,0,0.8899,0.89,0.8904,0.8901,0.8901,0.8904,0.8897,0.8898,0.8893,0.8889,0.8891,0.8887,0.8885,0.8886,0.8881,0.8889,0.8886,0.8881,0.8873,0.8885,0.8888,0.8889,0.8868,0.8868,0.8868,0.8867,0,0,0.8923,0.8915,0.8917,0.8915,0.891,0.8911,0.8914,0.8912,0.8912,0.891,0.8912,0.8912,0.8906,0.8905,0.89,0.8902,0.8912,0.8896,0.8896,0.8898,0.8919,0.8923,0.8925,0.8908,0.8908,0.8908,0.8919,0,0.8936,0.894,0.8934,0.8939,0.894,0.8931,0.8933,0.893,0.8926,0.8926,0.8921,0.8921,0.8914,0.8913,0.8915,0.891,0.8916,0.8909,0.8908,0.8908,0.8909,0.8927,0.8931,0.8942,0.8921,0.8921,0.8921,0,0.8952,0.8951,0.8957,0.8951,0.8951,0.8953,0.8951,0.8951,0.8947,0.8944,0.8942,0.8936,0.8937,0.893,0.8931,0.8927,0.8926,0.8924,0.8924,0.8923,0.8915,0.8926,0.8945,0.8947,0.8923,0.8923,0.8923,0,0.8968,0.8968,0.8971,0.897,0.8963,0.8965,0.8962,0.8958,0.8957,0.8955,0.8954,0.8952,0.8951,0.8949,0.8942,0.8938,0.8945,0.8937,0.8941,0.8942,0.8943,0.8943,0.8962,0.8943,0.8943,0.8943,0.8943,0,0.8984,0.8988,0.8978,0.898,0.8983,0.8976,0.8979,0.8975,0.8972,0.8972,0.8964,0.8965,0.8956,0.8955,0.895,0.8952,0.8951,0.8948,0.8947,0.8949,0.8949,0.8948,0.8947,0.8944,0.8944,0.8944,0.8944,0,0.9002,0.8996,0.8999,0.8992,0.8991,0.8993,0.8988,0.8989,0.8984,0.8985,0.8985,0.8977,0.8976,0.8969,0.8966,0.8962,0.8966,0.8963,0.8967,0.8966,0.8971,0.8971,0.8989,0.8991,0.8972,0.8972,0.8973,0,0.9012,0.9015,0.9009,0.9008,0.9006,0.9006,0.9005,0.8997,0.8997,0.8992,0.8994,0.8992,0.899,0.8989,0.8983,0.898,0.8977,0.8984,0.8977,0.8978,0.8976,0.8976,0.8976,0.8985,0.8986,0.8986,0.8986,0,0.9031,0.9027,0.9026,0.9024,0.9023,0.9021,0.9019,0.9019,0.901,0.901,0.9009,0.9007,0.9004,0.9002,0.8999,0.8996,0.8989,0.8988,0.8989,0.8991,0.8993,0.8991,0.8971,0.8988,0.8988,0.8987,0.8987,0.8987,0.9045,0.9046,0.9042,0.9041,0.9038,0.9036,0.9036,0.9032,0.9031,0.9028,0.9023,0.9022,0.9018,0.9012,0.901,0.9008,0.9005,0.9006,0.9006,0.9007,0.9008,0.8994,0.9008,0.9008,0.9008,0.9008,0.9008,0,0.9062,0.9059,0.9058,0.9055,0.9054,0.9048,0.9044,0.9044,0.9043,0.904,0.9038,0.9036,0.9034,0.9028,0.9025,0.9025,0.9022,0.9025,0.9025,0.9024,0.9011,0.9011,0.9027,0.9027,0.9027,0.9027,0.9027,0.9027,0.9071,0.9073,0.9069,0.907,0.9066,0.9065,0.9064,0.9061,0.9058,0.9057,0.9055,0.9051,0.9046,0.9043,0.904,0.9038,0.9038,0.9041,0.9038,0.9027,0.9025,0.9023,0.9022,0.9041,0.9041,0.905,0.9051,0.9051]}]]